Regional Weather Roundup
Issued by NWS

Home | Current Version | Previous Version | Graphics & Text | Print | Product List | Glossary On
Versions: 1 2 3 4 5 6 7 8 9 10 11 12 13 14 15 16 17 18 19 20 21 22 23 24 25 26 27 28 29 30 31 32 33 34 35 36 37 38 39 40 41 42 43 44 45 46 47 48 49 50
000
ASUS43 KLSX 020307
RWRMO

WEATHER SUMMARY FOR MISSOURI
NATIONAL WEATHER SERVICE SPRINGFIELD MO
1000 PM CDT MON SEP 01 2014

NOTE: "FAIR" INDICATES FEW OR NO CLOUDS BELOW 12,000 FEET WITH NO
       SIGNIFICANT WEATHER AND/OR OBSTRUCTIONS TO VISIBILITY.
       CURRENT SKY AND/OR WEATHER CONDITIONS ARE NOT AVAILABLE FOR
       CHILLICOTHE AND FARMINGTON.

MOZ001>031-035>038-043-044-053-054-020400-
...NORTHERN AND WESTERN MISSOURI...

CITY           SKY/WX    TMP DP  RH WIND       PRES   REMARKS
KANSAS CTY INT CLOUDY    71  69  93 S3        29.89R
KANSAS C DTWN  LGT RAIN  73  69  87 SE5       29.88R
LEE`S SUMMIT   RAIN      72  70  93 W7        29.92R FOG
ST JOSEPH      PTCLDY    67  65  93 CALM      29.88R
CHILLICOTHE      N/A     71  68  90 CALM      29.89R
KIRKSVILLE     CLOUDY    71  67  87 CALM      29.90R

$$
MOZ066>068-077>081-088>096-101>105-020400-
...SOUTHWEST MISSOURI...

CITY           SKY/WX    TMP DP  RH WIND       PRES   REMARKS
SPRINGFIELD    CLOUDY    80  70  71 S14       29.89R

$$
MOZ032>034-039>042-045>050-055>058-069>072-020400-
...CENTRAL MISSOURI...

CITY           SKY/WX    TMP DP  RH WIND       PRES   REMARKS
COLUMBIA       LGT RAIN  71  70  96 CALM      29.92S
JEFFERSON CITY LGT RAIN  72  70  93 CALM      29.90R
ROLLA          CLOUDY    75  68  78 S8        29.88R
SEDALIA        CLOUDY    72  70  93 E5        29.91R FOG
WHITEMAN AFB   MOCLDY    72  70  94 SE8       29.87F
OSAGE BEACH    CLOUDY    73  70  88 SE3       29.88F

$$
MOZ051-052-059>065-020400-
...EAST CENTRAL MISSOURI...

CITY           SKY/WX    TMP DP  RH WIND       PRES   REMARKS
ST LOUIS INTL  LGT RAIN  74  70  87 NE8       29.89F
SPIRIT OF STL  CLOUDY    73  70  88 N6        29.87F
ST CHARLES     CLOUDY    72  70  93 N7        29.92R THUNDER FOG

$$
MOZ072>076-082>087-097>100-106>115-020400-
...SOUTH CENTRAL AND SOUTHEAST MISSOURI...

CITY           SKY/WX    TMP DP  RH WIND       PRES   REMARKS
CAPE GIRARDEAU CLEAR     78  72  81 S8        29.92S
FARMINGTON     PTCLDY    77  72  83 S10       29.92F
POPLAR BLUFF   CLEAR     78  69  73 S6        29.91S
WEST PLAINS    MOCLDY    79  69  71 S8        29.95R

$$


USA.gov is the U.S. government's official web portal to all federal, state and local government web resources and services.